Terminal Aerodrome Forecast
Issued by NWS La Crosse, WI

Home | Current Version | Previous Version | Text Only | Print | Product List | Glossary On
Versions: 1 2 3 4 5 6 7 8 9 10 11 12 13 14 15 16 17 18 19 20 21 22 23 24 25 26 27 28 29 30 31 32 33 34 35 36 37 38 39
000
FTUS43 KARX 300139 AAA
TAFLSE
TAF AMD
KLSE 300139Z 3002/3024 VRB04KT P6SM BKN025
     FM300400 VRB03KT P6SM SCT150
     FM300830 VRB03KT 2SM BR SCT003
      TEMPO 3010/3014 1/4SM FG BKN001
     FM301500 18005KT 3SM BR BKN004
     FM301530 18005KT P6SM BKN012
     FM301800 19006KT P6SM SCT020=

USA.gov is the U.S. government's official web portal to all federal, state and local government web resources and services.